Weather History for KPAH - January, 2013

Change the Weather History Date:

Sunday, January 6, 2013

  Actual Average Record
Temperature  
Mean Temperature 32 °F 34 °F  
Max Temperature 42 °F 43 °F 68 °F (2008)
Min Temperature 22 °F 26 °F -2 °F (1970)
Degree Days  
Heating Degree Days 33 31  
Month to date heating degree days 209 183  
Since 1 July heating degree days 1736 1814  
Cooling Degree Days 0 0  
Month to date cooling degree days 0 0  
Year to date cooling degree days 0 0  
Moisture  
Dew Point 28 °F    
Average Humidity 78    
Maximum Humidity 96    
Minimum Humidity 59    
Precipitation  
Precipitation 0.00 in 0.11 in 1.22 in (1991)
Month to date precipitation T 0.73  
Year to date precipitation T 0.73  
Snow  
Snow 0.00 in 0.00 in 4.10 in (1996)
Month to date snowfall T 0.5  
Since 1 July snowfall 5.7 2.8  
Snow Depth 0.00 in    
Sea Level Pressure  
Sea Level Pressure 30.26 in    
Wind  
Wind Speed 6 mph (West)    
Max Wind Speed 16 mph    
Max Gust Speed 21 mph    
Visibility 8 miles    
Events      
T = Trace of Precipitation, MM = Missing Value Source: NWS Daily Summary

Daily Weather History Graph

Daily Weather History Graph

Search for Another Location

Airport or City:

Trip Planner

Search our weather history database for the weather conditions in past years. The results will help you decide how hot, cold, wet, or windy it might be!

Date:

Astronomy

Jan. 06, 2013 Rise Set
Actual Time 7:08 AM CST 4:53 PM CST
Civil Twilight 6:40 AM CST 5:22 PM CST
Nautical Twilight 6:07 AM CST 5:54 PM CST
Astronomical Twilight 5:36 AM CST 6:26 PM CST
Moon 1:26 AM CST (1/6) 12:18 PM CST (1/6)
Length of Visible Light 10h 42m
Length of Day
9h 44m
Waning Crescent, 33% of the Moon is Illuminated
Jan 6
Waning Crescent
Jan 11
New
Jan 18
First Quarter
Jan 26
Full
Feb 3
Last Quarter

Hourly Weather History & Observations

Time (CST) Temp. Windchill Dew Point Humidity Pressure Visibility Wind Dir Wind Speed Gust Speed Precip Events Conditions
12:53 AM 37.9 °F 32.1 °F 32.0 °F 79% 30.21 in 10.0 mi SW 8.1 mph - N/A   Overcast
1:53 AM 37.9 °F 33.5 °F 33.1 °F 83% 30.19 in 10.0 mi SW 5.8 mph - N/A   Overcast
2:53 AM 37.0 °F 31.0 °F 34.0 °F 89% 30.18 in 9.0 mi SW 8.1 mph - N/A   Scattered Clouds
3:53 AM 35.6 °F 29.2 °F 33.8 °F 93% 30.16 in 8.0 mi SW 8.1 mph - N/A   Partly Cloudy
4:53 AM 35.1 °F 29.3 °F 33.1 °F 92% 30.16 in 5.0 mi SSW 6.9 mph - N/A   Clear
5:41 AM 35.6 °F 29.9 °F 33.8 °F 93% 30.15 in 4.0 mi SSW 6.9 mph - N/A   Scattered Clouds
5:50 AM 35.6 °F 28.6 °F 33.8 °F 93% 30.15 in 4.0 mi SW 9.2 mph - N/A   Mostly Cloudy
5:53 AM 35.1 °F 29.3 °F 33.1 °F 92% 30.16 in 4.0 mi SSW 6.9 mph - N/A   Mostly Cloudy
6:18 AM 33.8 °F 27.7 °F 33.8 °F 100% 30.16 in 4.0 mi SW 6.9 mph - N/A   Mostly Cloudy
6:33 AM 33.8 °F 27.7 °F 33.8 °F 100% 30.16 in 4.0 mi SW 6.9 mph - N/A   Scattered Clouds
6:53 AM 34.0 °F 27.2 °F 32.0 °F 92% 30.18 in 5.0 mi WSW 8.1 mph - N/A   Clear
7:53 AM 34.0 °F 27.2 °F 32.0 °F 92% 30.20 in 5.0 mi WSW 8.1 mph - N/A   Clear
8:53 AM 37.9 °F 30.9 °F 33.1 °F 83% 30.22 in 8.0 mi WSW 10.4 mph - N/A   Clear
9:53 AM 41.0 °F 35.8 °F 33.1 °F 73% 30.22 in 10.0 mi WNW 8.1 mph - N/A   Clear
10:37 AM 39.2 °F 32.5 °F 30.2 °F 70% 30.23 in 10.0 mi WNW 10.4 mph 20.7 mph N/A   Mostly Cloudy
10:53 AM 39.9 °F 33.4 °F 30.0 °F 68% 30.24 in 10.0 mi NW 10.4 mph 18.4 mph N/A   Mostly Cloudy
11:53 AM 39.0 °F 34.0 °F 28.0 °F 65% 30.24 in 10.0 mi NW 6.9 mph - N/A   Overcast
12:53 PM 39.0 °F 33.4 °F 28.0 °F 65% 30.24 in 9.0 mi NW 8.1 mph - N/A   Overcast
1:53 PM 36.0 °F 29.6 °F 25.0 °F 64% 30.28 in 9.0 mi NW 8.1 mph - N/A   Overcast
2:53 PM 37.0 °F 30.4 °F 25.0 °F 62% 30.30 in 10.0 mi NW 9.2 mph - N/A   Mostly Cloudy
3:13 PM 39.2 °F 33.6 °F 24.8 °F 56% 30.30 in 10.0 mi NW 8.1 mph - N/A   Scattered Clouds
3:53 PM 37.0 °F 31.6 °F 24.1 °F 59% 30.32 in 10.0 mi NNW 6.9 mph - N/A   Clear
4:53 PM 34.0 °F 31.0 °F 24.1 °F 67% 30.35 in 10.0 mi NNW 3.5 mph - N/A   Clear
5:53 PM 33.1 °F - 24.1 °F 70% 30.36 in 10.0 mi Calm Calm - N/A   Clear
6:53 PM 30.9 °F - 23.0 °F 72% 30.38 in 10.0 mi Calm Calm - N/A   Clear
7:53 PM 27.0 °F - 21.9 °F 81% 30.39 in 9.0 mi Calm Calm - N/A   Clear
8:53 PM 26.1 °F - 23.0 °F 88% 30.40 in 9.0 mi Calm Calm - N/A   Clear
9:53 PM 24.1 °F - 19.9 °F 84% 30.40 in 8.0 mi Calm Calm - N/A   Clear
10:53 PM 24.1 °F - 21.9 °F 91% 30.41 in 6.0 mi Calm Calm - N/A   Clear
11:53 PM 23.0 °F - 19.9 °F 88% 30.42 in 4.0 mi Calm Calm - N/A   Clear